1512514800.3,30988,2.75,73300.0,-9.29,-10.31,-10.19,0,*52
1512514801.53,30989,2.75,73278.5,-9.31,-10.19,-10.27,0,*5D
1512514802.76,30990,2.75,73250.5,-9.31,-10.19,-10.15,0,*54
1512514803.99,30991,2.75,73220.5,-9.29,-10.09,-10.09,0,*50
1512514805.23,30992,2.75,73168.8,-9.29,-10.09,-10.09,0,*53
1512514806.46,30993,2.75,73154.8,-9.29,-10.01,-9.97,0,*65
1512514807.7,30994,2.75,73154.3,-9.29,-10.01,-10.09,0,*5D
1512514808.94,30995,2.75,73164.8,-9.29,-10.01,-10.01,0,*54
1512514810.18,30996,2.75,73178.3,-9.29,-10.09,-10.09,0,*57
1512514811.42,30997,2.75,73178.5,-9.29,-10.01,-10.09,0,*5E
1512514812.66,30998,2.75,73190.8,-9.29,-10.09,-10.15,0,*54
1512514813.91,30999,2.75,73206.3,-9.29,-10.15,-10.09,0,*55
1512514815.14,31000,2.75,73222.5,-9.29,-10.01,-10.09,0,*58
1512514816.38,31001,2.75,73230.8,-9.29,-10.09,-10.09,0,*51
1512514817.62,31002,2.75,73228.5,-9.29,-10.09,-10.01,0,*5A
1512514818.84,31003,2.75,73240.5,-9.31,-10.09,-10.15,0,*57
1512514820.08,31004,2.75,73240.8,-9.29,-10.09,-10.01,0,*5C
1512514821.31,31005,2.81,73248.0,-9.29,-10.09,-9.97,0,*6A
1512514822.53,31006,2.75,73256.8,-9.31,-10.01,-10.01,0,*5F
1512514823.77,31007,2.75,73268.3,-9.29,-10.01,-10.01,0,*57
1512514825.01,31008,2.75,73266.3,-9.29,-10.09,-10.01,0,*50
1512514826.22,31009,2.75,73254.5,-9.31,-10.09,-10.09,0,*50
1512514827.47,31010,2.75,73248.0,-9.29,-10.15,-10.15,0,*51
1512514828.69,31011,2.75,73250.8,-9.31,-10.09,-10.15,0,*54
1512514829.91,31012,2.75,73258.3,-9.31,-10.15,-10.15,0,*5A
1512514831.17,31013,2.75,73258.0,-9.29,-10.19,-10.15,0,*5E
1512514832.39,31014,2.75,73252.0,-9.31,-10.19,-10.19,0,*5C
1512514833.64,31015,2.75,73222.3,-9.29,-10.19,-10.19,0,*54
1512514834.87,31016,2.75,73204.8,-9.31,-10.19,-10.19,0,*5E
1512514836.12,31017,2.75,73234.8,-9.29,-10.19,-10.09,0,*57
1512514837.37,31018,2.75,73238.3,-9.29,-10.19,-10.15,0,*55
1512514838.62,31019,2.75,73256.3,-9.29,-10.19,-10.15,0,*54
1512514839.84,31020,2.75,73284.0,-9.31,-10.09,-10.15,0,*56
1512514841.05,31021,2.75,73300.0,-9.31,-10.09,-10.15,0,*57
1512514842.27,31022,2.75,73298.0,-9.31,-10.01,-10.01,0,*59
1512514843.51,31023,2.75,73296.5,-9.29,-10.01,-10.09,0,*59
1512514844.72,31024,2.75,73300.3,-9.31,-10.09,-10.09,0,*5F
1512514845.94,31025,2.75,73280.8,-9.31,-10.15,-10.09,0,*53
1512514847.15,31026,2.75,73324.0,-9.31,-10.09,-10.15,0,*50
1512514848.37,31027,2.75,73260.3,-9.31,-10.15,-10.09,0,*51
1512514849.62,31028,2.75,73302.8,-9.29,-10.15,-10.15,0,*5A
1512514850.87,31029,2.75,73300.5,-9.29,-10.15,-10.09,0,*56
1512514852.09,31030,2.75,73296.0,-9.31,-10.15,-10.15,0,*5A
1512514853.32,31031,2.75,73300.3,-9.31,-10.15,-10.15,0,*5B
1512514854.55,31032,2.75,73302.5,-9.31,-10.15,-10.15,0,*58
1512514855.76,31033,2.75,73300.3,-9.31,-10.15,-10.09,0,*54
1512514856.99,31034,2.75,73294.3,-9.31,-10.15,-10.15,0,*5E
1512514858.24,31035,2.75,73300.3,-9.29,-10.15,-10.15,0,*56
1512514859.47,31036,2.75,73308.0,-9.31,-10.19,-10.15,0,*50
1512514860.69,31037,2.75,73304.0,-9.31,-10.19,-10.19,0,*5D
1512514861.92,31038,2.75,73296.5,-9.31,-10.31,-10.19,0,*58
1512514863.14,31039,2.75,73288.0,-9.31,-10.27,-10.27,0,*53
1512514864.36,31040,2.75,73278.0,-9.31,-10.27,-10.31,0,*5A
1512514865.58,31041,2.75,73274.5,-9.31,-10.27,-10.31,0,*5B
1512514866.83,31042,2.75,73270.8,-9.31,-10.31,-10.41,0,*58
1512514868.07,31043,2.75,73258.3,-9.31,-10.41,-10.31,0,*59
1512514869.31,31044,2.75,73242.3,-9.33,-10.45,-10.45,0,*5B
1512514870.55,31045,2.75,73230.3,-9.33,-10.45,-10.45,0,*5A
1512514871.8,31046,2.75,73220.5,-9.33,-10.45,-10.35,0,*5E
1512514873.02,31047,2.75,73208.3,-9.35,-10.35,-10.23,0,*59
1512514874.23,31048,2.75,73202.8,-9.35,-10.23,-10.23,0,*51
1512514875.47,31049,2.75,73208.8,-9.33,-10.31,-10.23,0,*55
1512514876.72,31050,2.75,73216.3,-9.33,-10.23,-10.31,0,*5D
1512514877.96,31051,2.75,73224.0,-9.33,-10.23,-10.23,0,*5F
1512514879.2,31052,2.75,73202.5,-9.33,-10.23,-10.31,0,*5F
1512514880.45,31053,2.75,73190.0,-9.33,-10.23,-10.31,0,*5E
1512514881.69,31054,2.75,73196.0,-9.33,-10.31,-10.23,0,*59
1512514882.93,31055,2.75,73206.0,-9.33,-10.23,-10.23,0,*5B
1512514884.15,31056,2.75,73220.8,-9.35,-10.31,-10.31,0,*5E
1512514885.39,31057,2.75,73236.5,-9.33,-10.31,-10.23,0,*5A
1512514886.63,31058,2.75,73254.0,-9.33,-10.23,-10.23,0,*56
1512514887.88,31059,2.75,73246.5,-9.33,-10.23,-10.19,0,*5E
1512514889.09,31060,2.75,73238.3,-9.35,-10.23,-10.23,0,*5B
1512514890.32,31061,2.75,73246.0,-9.35,-10.19,-10.19,0,*5A
1512514891.57,31062,2.75,73262.0,-9.33,-10.19,-10.19,0,*5F
1512514892.82,31063,2.75,73264.5,-9.33,-10.19,-10.19,0,*5E
1512514894.05,31064,2.75,73258.3,-9.35,-10.15,-10.15,0,*5F
1512514895.27,31065,2.75,73254.3,-9.35,-10.19,-10.19,0,*5E
1512514896.5,31066,2.75,73254.8,-9.35,-10.19,-10.19,0,*5D
1512514897.75,31067,2.75,73262.8,-9.33,-10.19,-10.19,0,*5A
1512514898.98,31068,2.75,73276.5,-9.35,-10.19,-10.15,0,*5F
1512514900.2,31069,2.75,73264.0,-9.35,-10.19,-10.19,0,*52
1512514901.43,31070,2.75,73256.8,-9.35,-10.15,-10.19,0,*56
1512514902.65,31071,2.75,73276.5,-9.35,-10.23,-10.19,0,*52
1512514903.88,31072,2.75,73282.3,-9.35,-10.19,-10.19,0,*58
1512514905.1,31073,2.75,73278.8,-9.35,-10.19,-10.19,0,*59
1512514906.32,31074,2.75,73260.8,-9.35,-10.23,-10.23,0,*5E
1512514907.56,31075,2.75,73256.5,-9.33,-10.31,-10.23,0,*5A
1512514908.78,31076,2.75,73230.0,-9.35,-10.31,-10.31,0,*5C
1512514910.02,31077,2.75,73236.0,-9.33,-10.31,-10.45,0,*58
1512514911.25,31078,2.75,73226.5,-9.35,-10.35,-10.31,0,*56
1512514912.47,31079,2.75,73232.5,-9.35,-10.31,-10.31,0,*53
1512514913.69,31080,2.75,73216.0,-9.35,-10.31,-10.31,0,*55
1512514914.91,31081,2.75,73222.5,-9.35,-10.23,-10.31,0,*57
1512514916.13,31082,2.75,73202.0,-9.35,-10.23,-10.23,0,*57
1512514917.35,31083,2.75,73212.3,-9.35,-10.31,-10.31,0,*56
1512514918.56,31084,2.75,73220.8,-9.35,-10.31,-10.23,0,*52
1512514919.78,31085,2.75,73220.0,-9.35,-10.31,-10.31,0,*50
1512514921.0,31086,2.75,73226.3,-9.35,-10.31,-10.31,0,*53
1512514922.26,31087,2.75,73218.0,-9.37,-10.35,-10.27,0,*53
1512514923.48,31088,2.75,73222.5,-9.35,-10.23,-10.31,0,*5E
1512514924.7,31089,2.75,73228.5,-9.35,-10.31,-10.31,0,*5C
1512514925.92,31090,2.75,73242.0,-9.39,-10.35,-10.35,0,*58
1512514927.17,31091,2.81,73254.8,-9.37,-10.27,-10.35,0,*54
1512514928.43,31092,2.75,73218.0,-9.37,-10.35,-10.27,0,*57
1512514929.68,31093,2.75,73198.5,-9.37,-10.35,-10.35,0,*55
1512514930.93,31094,2.75,73228.8,-9.37,-10.35,-10.35,0,*52
1512514932.18,31095,2.75,73228.8,-9.37,-10.27,-10.35,0,*50
1512514933.43,31096,2.75,73216.0,-9.37,-10.27,-10.27,0,*50
1512514934.68,31097,2.75,73230.0,-9.37,-10.35,-10.35,0,*51
1512514935.94,31098,2.75,73226.3,-9.37,-10.35,-10.35,0,*5E
1512514937.19,31099,2.75,73226.3,-9.37,-10.35,-10.35,0,*5F
1512514938.45,31100,2.75,73222.5,-9.37,-10.35,-10.27,0,*5D
1512514939.7,31101,2.75,73242.8,-9.37,-10.35,-10.35,0,*5F
1512514940.95,31102,2.75,73220.3,-9.37,-10.27,-10.27,0,*5C
1512514942.2,31103,2.75,73200.0,-9.37,-10.35,-10.35,0,*5D
1512514943.46,31104,2.75,73206.5,-9.37,-10.35,-10.35,0,*5A
1512514944.71,31105,2.75,73214.0,-9.37,-10.27,-10.27,0,*5B
1512514945.92,31106,2.75,73238.0,-9.39,-10.27,-10.27,0,*56
1512514947.17,31107,2.75,73242.8,-9.37,-10.23,-10.27,0,*5D
1512514948.42,31108,2.75,73228.8,-9.37,-10.23,-10.27,0,*52
1512514949.67,31109,2.75,73216.0,-9.37,-10.23,-10.27,0,*53
1512514950.88,31110,2.75,73234.3,-9.39,-10.27,-10.23,0,*55
1512514952.1,31111,2.75,73220.0,-9.39,-10.27,-10.27,0,*50
1512514953.35,31112,2.81,73230.0,-9.37,-10.27,-10.27,0,*5D
1512514954.57,31113,2.75,73252.3,-9.39,-10.27,-10.27,0,*52
1512514955.79,31114,2.75,73248.3,-9.39,-10.27,-10.35,0,*56
1512514957.01,31115,2.75,73226.0,-9.39,-10.27,-10.27,0,*54
1512514958.23,31116,2.75,73268.8,-9.39,-10.27,-10.27,0,*57
1512514959.45,31117,2.75,73280.8,-9.39,-10.27,-10.35,0,*55
1512514960.7,31118,2.75,73282.8,-9.37,-10.27,-10.27,0,*57
1512514961.92,31119,2.75,73298.0,-9.39,-10.27,-10.27,0,*58
1512514963.14,31120,2.75,73308.8,-9.39,-10.35,-10.27,0,*51
1512514964.39,31121,2.75,73284.0,-9.37,-10.27,-10.35,0,*5E
1512514965.61,31122,2.75,73258.5,-9.39,-10.27,-10.27,0,*50
1512514966.83,31123,2.75,73228.0,-9.39,-10.27,-10.27,0,*51
1512514968.05,31124,2.75,73234.5,-9.39,-10.19,-10.23,0,*5F
1512514969.26,31125,2.75,73226.3,-9.39,-10.23,-10.23,0,*57
1512514970.5,31126,2.75,73152.8,-9.37,-10.23,-10.23,0,*5A
1512514971.71,31127,2.75,73124.5,-9.39,-10.23,-10.23,0,*55
1512514972.93,31128,2.75,73116.5,-9.39,-10.23,-10.23,0,*5A
1512514974.17,31129,2.75,73134.3,-9.37,-10.23,-10.23,0,*55
1512514975.38,31130,2.75,73168.5,-9.39,-10.23,-10.23,0,*53
1512514976.63,31131,2.75,73192.0,-9.37,-10.19,-10.23,0,*55
1512514977.88,31132,2.75,73206.0,-9.37,-10.19,-10.23,0,*56
1512514979.1,31133,2.75,73212.0,-9.39,-10.19,-10.19,0,*50
1512514980.34,31134,2.75,73222.5,-9.37,-10.09,-10.19,0,*58
1512514981.56,31135,2.75,73224.5,-9.39,-10.23,-10.19,0,*5F
1512514982.81,31136,2.75,73240.5,-9.37,-10.19,-10.09,0,*5A
1512514984.03,31137,2.75,73232.5,-9.39,-10.19,-10.19,0,*54
1512514985.28,31138,2.75,73252.5,-9.37,-10.19,-10.19,0,*55
1512514986.5,31139,2.75,73268.0,-9.39,-10.23,-10.19,0,*53
1512514987.72,31140,2.75,73276.5,-9.39,-10.19,-10.23,0,*5D
1512514988.97,31141,2.75,73264.3,-9.37,-10.19,-10.19,0,*5B
1512514990.22,31142,2.75,73290.0,-9.37,-10.23,-10.19,0,*51
1512514991.44,31143,2.75,73268.3,-9.39,-10.19,-10.19,0,*57
1512514992.69,31144,2.75,73238.3,-9.37,-10.19,-10.23,0,*57
1512514993.9,31145,2.75,73236.5,-9.39,-10.23,-10.23,0,*51
1512514995.12,31146,2.75,73248.0,-9.39,-10.23,-10.23,0,*52
1512514996.33,31147,2.75,73270.5,-9.39,-10.23,-10.23,0,*53
1512514997.57,31148,2.75,73266.3,-9.37,-10.23,-10.23,0,*52
1512514998.8,31149,2.75,73246.8,-9.35,-10.19,-10.19,0,*51
1512515000.04,31150,2.75,73234.0,-9.37,-10.23,-10.23,0,*5B
1512515001.28,31151,2.75,73238.5,-9.37,-10.23,-10.23,0,*5A
1512515002.53,31152,2.75,73256.3,-9.37,-10.27,-10.23,0,*5D
1512515003.77,31153,2.75,73266.3,-9.37,-10.23,-10.23,0,*58
1512515005.02,31154,2.75,73266.5,-9.37,-10.23,-10.19,0,*56
1512515006.27,31155,2.75,73270.3,-9.37,-10.23,-10.19,0,*57
1512515007.51,31156,2.75,73258.3,-9.37,-10.23,-10.19,0,*54
1512515008.76,31157,2.75,73258.5,-9.37,-10.23,-10.19,0,*55
1512515009.98,31158,2.75,73258.3,-9.39,-10.23,-10.23,0,*5D
1512515011.23,31159,2.75,73250.3,-9.37,-10.23,-10.19,0,*5B
1512515012.47,31160,2.75,73242.3,-9.37,-10.19,-10.23,0,*51
1512515013.69,31161,2.75,73222.8,-9.39,-10.23,-10.23,0,*57
1512515014.91,31162,2.75,73210.8,-9.35,-10.19,-10.15,0,*54
1512515016.16,31163,2.75,73208.3,-9.37,-10.19,-10.19,0,*5B
1512515017.38,31164,2.75,73218.8,-9.39,-10.23,-10.23,0,*52
1512515018.6,31165,2.75,73212.8,-9.39,-10.19,-10.19,0,*53
1512515019.85,31166,2.75,73258.8,-9.37,-10.19,-10.09,0,*5F
1512515021.07,31167,2.75,73262.8,-9.39,-10.19,-10.19,0,*51
1512515022.32,31168,2.75,73268.3,-9.37,-10.19,-10.19,0,*50
1512515023.57,31169,2.75,73286.5,-9.37,-10.23,-10.19,0,*58
1512515024.82,31170,2.75,73304.0,-9.37,-10.19,-10.09,0,*58
1512515026.06,31171,2.75,73322.3,-9.37,-10.23,-10.09,0,*50
1512515027.31,31172,2.75,73318.8,-9.37,-10.19,-10.09,0,*5A
1512515028.55,31173,2.75,73308.3,-9.37,-10.19,-10.09,0,*5B
1512515029.8,31174,2.75,73312.0,-9.37,-10.19,-10.19,0,*5D
1512515031.05,31175,2.75,73316.0,-9.37,-10.23,-10.19,0,*55
1512515032.28,31176,2.75,73324.8,-9.39,-10.19,-10.19,0,*51
1512515033.52,31177,2.75,73322.8,-9.37,-10.19,-10.09,0,*5F
1512515034.77,31178,2.75,73320.0,-9.37,-10.19,-10.09,0,*50
1512515035.99,31179,2.75,73314.8,-9.39,-10.19,-10.09,0,*5F
1512515037.22,31180,2.75,73314.3,-9.37,-10.05,-10.09,0,*5A
1512515038.45,31181,2.75,73304.3,-9.37,-10.09,-10.05,0,*5B
1512515039.7,31182,2.75,73302.0,-9.37,-10.19,-10.09,0,*55
1512515040.95,31183,2.75,73354.8,-9.37,-10.19,-10.09,0,*54
1512515042.19,31184,2.75,73340.3,-9.37,-10.19,-10.05,0,*5F
1512515043.44,31185,2.75,73324.0,-9.37,-10.19,-10.19,0,*53
1512515044.69,31186,2.75,73322.5,-9.37,-10.23,-10.23,0,*50
1512515045.93,31187,2.75,73330.0,-9.37,-10.23,-10.23,0,*51
1512515047.17,31188,2.75,73328.0,-9.37,-10.23,-10.23,0,*5E
1512515048.38,31189,2.75,73322.3,-9.39,-10.23,-10.23,0,*51
1512515049.63,31190,2.75,73274.8,-9.37,-10.23,-10.23,0,*57
1512515050.87,31191,2.75,73264.8,-9.37,-10.27,-10.23,0,*52
1512515052.12,31192,2.75,73274.3,-9.37,-10.27,-10.27,0,*55
1512515053.37,31193,2.75,73268.0,-9.37,-10.27,-10.27,0,*54
1512515054.62,31194,2.75,73270.3,-9.37,-10.35,-10.35,0,*53
1512515055.87,31195,2.75,73286.3,-9.37,-10.27,-10.35,0,*51
1512515057.09,31196,2.75,73292.3,-9.39,-10.27,-10.27,0,*5F
1512515058.34,31197,2.75,73304.3,-9.37,-10.23,-10.19,0,*59
1512515059.59,31198,2.75,73312.8,-9.37,-10.23,-10.19,0,*56
1512515060.8,31199,2.75,73312.3,-9.39,-10.23,-10.23,0,*50
1512515062.04,31200,2.75,73244.0,-9.37,-10.27,-10.23,0,*59
1512515063.29,31201,2.75,73224.5,-9.37,-10.27,-10.27,0,*5C
1512515064.55,31202,2.75,73232.3,-9.37,-10.35,-10.35,0,*5F
1512515065.77,31203,2.75,73248.3,-9.39,-10.27,-10.35,0,*53
1512515067.01,31204,2.75,73220.3,-9.39,-10.41,-10.27,0,*57
1512515068.24,31205,2.75,73252.3,-9.39,-10.35,-10.27,0,*55
1512515069.46,31206,2.75,73234.3,-9.39,-10.27,-10.35,0,*56
1512515070.68,31207,2.75,73170.5,-9.39,-10.27,-10.27,0,*54
1512515071.93,31208,2.75,73150.5,-9.37,-10.27,-10.27,0,*55
1512515073.14,31209,2.75,73170.3,-9.39,-10.19,-10.23,0,*53
1512515074.36,31210,2.75,73212.8,-9.39,-10.23,-10.23,0,*52
1512515075.57,31211,2.75,73204.0,-9.39,-10.23,-10.23,0,*53
1512515076.78,31212,2.75,73232.8,-9.39,-10.23,-10.23,0,*50
1512515077.99,31213,2.75,73260.3,-9.39,-10.23,-10.23,0,*51
1512515079.21,31214,2.75,73256.5,-9.39,-10.23,-10.19,0,*5F
1512515080.43,31215,2.75,73206.3,-9.39,-10.23,-10.19,0,*5E
1512515081.65,31216,2.75,73186.0,-9.39,-10.23,-10.23,0,*54
1512515082.9,31217,2.75,73170.5,-9.37,-10.27,-10.19,0,*56
1512515084.11,31218,2.75,73166.5,-9.39,-10.23,-10.23,0,*5A
1512515085.32,31219,2.75,73164.3,-9.39,-10.19,-10.23,0,*52
1512515086.54,31220,2.75,73162.0,-9.39,-10.23,-10.23,0,*51
1512515087.75,31221,2.75,73168.5,-9.39,-10.23,-10.23,0,*50
1512515088.96,31222,2.75,73188.3,-9.39,-10.23,-10.23,0,*53
1512515090.18,31223,2.75,73196.0,-9.39,-10.23,-10.23,0,*52
1512515091.42,31224,2.75,73210.5,-9.37,-10.23,-10.23,0,*5B
1512515092.63,31225,2.75,73218.8,-9.39,-10.23,-10.23,0,*54
1512515093.84,31226,2.75,73228.5,-9.39,-10.23,-10.23,0,*57
1512515095.06,31227,2.75,73234.8,-9.39,-10.23,-10.23,0,*56
1512515096.27,31228,2.75,73246.8,-9.39,-10.23,-10.23,0,*59
1512515097.48,31229,2.75,73252.3,-9.39,-10.23,-10.23,0,*58
1512515098.73,31230,2.75,73264.0,-9.37,-10.19,-10.23,0,*57
1512515099.95,31231,2.75,73256.0,-9.39,-10.19,-10.19,0,*51
1512515101.21,31232,2.75,73256.3,-9.37,-10.19,-10.19,0,*5C
1512515102.43,31233,2.75,73242.5,-9.39,-10.19,-10.19,0,*53
1512515103.67,31234,2.75,73244.8,-9.37,-10.19,-10.09,0,*5B
1512515104.88,31235,2.75,73254.5,-9.39,-10.09,-10.09,0,*55
1512515106.1,31236,2.75,73260.5,-9.39,-10.19,-10.09,0,*57
1512515107.31,31237,2.75,73252.5,-9.39,-10.09,-10.19,0,*56
1512515108.51,31238,2.75,73262.3,-9.39,-10.09,-10.09,0,*58
1512515109.73,31239,2.75,73262.0,-9.39,-10.09,-10.19,0,*58
1512515110.94,31240,2.75,73272.3,-9.39,-10.09,-10.19,0,*56
1512515112.16,31241,2.75,73270.5,-9.39,-10.19,-10.19,0,*56
1512515113.38,31242,2.75,73270.3,-9.39,-10.19,-10.09,0,*54
1512515114.63,31243,2.75,73272.5,-9.37,-10.23,-10.19,0,*53
1512515115.85,31244,2.75,73276.8,-9.39,-10.19,-10.09,0,*52
1512515117.09,31245,2.75,73278.8,-9.37,-10.19,-10.05,0,*51
1512515118.33,31246,2.75,73270.8,-9.37,-10.09,-10.09,0,*5F
1512515119.56,31247,2.75,73278.0,-9.37,-10.09,-10.23,0,*56
1512515120.77,31248,2.75,73260.8,-9.39,-10.09,-10.09,0,*5F
1512515122.02,31249,2.75,73228.3,-9.37,-10.19,-10.19,0,*50
1512515123.27,31250,2.75,73238.8,-9.37,-10.19,-10.19,0,*58
1512515124.5,31251,2.75,73268.3,-9.39,-10.19,-10.19,0,*57
1512515125.71,31252,2.75,73302.0,-9.39,-10.23,-10.09,0,*5C
1512515126.96,31253,2.75,73280.0,-9.37,-10.23,-10.19,0,*52
1512515128.2,31254,2.75,73280.8,-9.37,-10.19,-10.23,0,*55
1512515129.42,31255,2.75,73286.5,-9.39,-10.19,-10.23,0,*5A
1512515130.67,31256,2.75,73300.8,-9.37,-10.19,-10.19,0,*5E
1512515131.89,31257,2.75,73310.0,-9.39,-10.09,-10.19,0,*50
1512515133.14,31258,2.75,73282.5,-9.37,-10.19,-10.19,0,*50
1512515134.36,31259,2.75,73270.3,-9.39,-10.19,-10.19,0,*5F
1512515135.61,31260,2.75,73266.5,-9.37,-10.23,-10.23,0,*5B
1512515136.85,31261,2.75,73256.5,-9.37,-10.23,-10.23,0,*5A
1512515138.07,31262,2.75,73258.3,-9.39,-10.27,-10.27,0,*57
1512515139.29,31263,2.75,73262.8,-9.39,-10.27,-10.27,0,*56
1512515140.54,31264,2.75,73252.0,-9.37,-10.35,-10.27,0,*5C
1512515141.79,31265,2.75,73234.8,-9.37,-10.35,-10.27,0,*5D
1512515143.02,31266,2.75,73218.0,-9.39,-10.35,-10.35,0,*53
1512515144.23,31267,2.75,73200.0,-9.39,-10.53,-10.49,0,*59
1512515145.5,31268,2.75,73208.0,-9.39,-10.41,-10.41,0,*5D
1512515146.74,31269,2.75,73208.3,-9.41,-10.45,-10.45,0,*53
1512515148.01,31270,2.75,73216.3,-9.41,-10.41,-10.45,0,*5F
1512515149.28,31271,2.75,73246.3,-9.41,-10.41,-10.31,0,*5D
1512515150.51,31272,2.75,73240.3,-9.39,-10.35,-10.27,0,*55
1512515151.78,31273,2.75,73236.8,-9.41,-10.41,-10.31,0,*5F
1512515153.06,31274,2.75,73228.8,-9.41,-10.41,-10.31,0,*58
1512515154.3,31275,2.75,73234.0,-9.41,-10.45,-10.45,0,*5E
1512515155.52,31276,2.75,73264.0,-9.43,-10.45,-10.53,0,*58
1512515156.79,31277,2.75,73258.0,-9.41,-10.45,-10.41,0,*58
1512515158.0,31278,2.75,73242.3,-9.43,-10.45,-10.45,0,*51
1512515159.25,31279,2.75,73204.0,-9.41,-10.45,-10.45,0,*52
1512515160.49,31280,2.75,73164.3,-9.41,-10.45,-10.45,0,*54
1512515161.79,31281,2.75,73156.3,-9.41,-10.41,-10.41,0,*55
1512515163.01,31282,2.75,73136.5,-9.43,-10.31,-10.31,0,*54
1512515164.26,31283,2.75,73116.8,-9.41,-10.31,-10.31,0,*57
1512515165.51,31284,2.75,73116.0,-9.41,-10.31,-10.31,0,*50
1512515166.76,31285,2.81,73170.5,-9.41,-10.23,-10.27,0,*55
1512515168.01,31286,2.75,73186.8,-9.41,-10.27,-10.27,0,*52
1512515169.23,31287,2.75,73200.3,-9.43,-10.23,-10.27,0,*55
1512515170.47,31288,2.75,73210.0,-9.41,-10.23,-10.23,0,*5C
1512515171.72,31289,2.75,73214.3,-9.41,-10.27,-10.23,0,*59
1512515172.96,31290,2.75,73216.8,-9.41,-10.27,-10.23,0,*51
1512515174.21,31291,2.75,73210.8,-9.41,-10.23,-10.27,0,*50
1512515175.43,31292,2.81,73218.0,-9.43,-10.27,-10.27,0,*55
1512515176.68,31293,2.75,73228.3,-9.41,-10.27,-10.27,0,*56
1512515177.93,31294,2.75,73254.5,-9.41,-10.27,-10.27,0,*51
1512515179.18,31295,2.75,73264.8,-9.41,-10.23,-10.23,0,*50
1512515180.43,31296,2.75,73272.5,-9.41,-10.27,-10.27,0,*53
1512515181.68,31297,2.75,73288.5,-9.41,-10.27,-10.27,0,*52
1512515182.93,31298,2.75,73294.8,-9.41,-10.23,-10.15,0,*58
1512515184.18,31299,2.75,73296.0,-9.41,-10.23,-10.15,0,*59
1512515185.42,31300,2.75,73270.8,-9.41,-10.27,-10.23,0,*59
1512515186.66,31301,2.75,73274.3,-9.41,-10.27,-10.23,0,*58
1512515187.91,31302,2.75,73268.5,-9.41,-10.27,-10.27,0,*5F
1512515189.16,31303,2.75,73272.5,-9.41,-10.27,-10.27,0,*5E
1512515190.38,31304,2.75,73274.5,-9.43,-10.23,-10.23,0,*5B
1512515191.6,31305,2.75,73270.8,-9.43,-10.23,-10.23,0,*5A
1512515192.84,31306,2.75,73274.8,-9.41,-10.23,-10.23,0,*5B
1512515194.09,31307,2.75,73288.8,-9.41,-10.15,-10.27,0,*5B
1512515195.34,31308,2.75,73290.5,-9.41,-10.23,-10.15,0,*50
1512515196.59,31309,2.75,73302.3,-9.41,-10.15,-10.23,0,*51
1512515197.83,31310,2.75,73292.8,-9.41,-10.23,-10.23,0,*5C
1512515199.05,31311,2.75,73294.0,-9.43,-10.27,-10.23,0,*5B
1512515200.29,31312,2.75,73300.5,-9.41,-10.23,-10.23,0,*5E
1512515201.54,31313,2.75,73288.3,-9.41,-10.27,-10.23,0,*5B
1512515202.79,31314,2.75,73256.3,-9.41,-10.27,-10.27,0,*58
1512515204.04,31315,2.75,73244.3,-9.41,-10.27,-10.27,0,*59
1512515205.29,31316,2.75,73208.0,-9.41,-10.27,-10.27,0,*5A
1512515206.54,31317,2.75,73186.8,-9.41,-10.27,-10.27,0,*5B
1512515207.76,31318,2.75,73208.0,-9.43,-10.31,-10.27,0,*51
1512515209.01,31319,2.75,73188.5,-9.41,-10.31,-10.31,0,*55
1512515210.26,31320,2.75,73194.3,-9.41,-10.31,-10.31,0,*5F
1512515211.48,31321,2.75,73196.0,-9.43,-10.31,-10.31,0,*5C
1512515212.75,31322,2.75,73200.3,-9.41,-10.41,-10.31,0,*5A
1512515214.05,31323,2.75,73160.0,-9.41,-10.41,-10.41,0,*5C
1512515215.3,31324,2.75,73166.0,-9.43,-10.31,-10.41,0,*5E
1512515216.55,31325,2.75,73186.5,-9.43,-10.41,-10.31,0,*5F
1512515217.77,31326,2.75,73206.3,-9.43,-10.31,-10.31,0,*5B
1512515218.99,31327,2.75,73224.5,-9.43,-10.27,-10.27,0,*5A
1512515220.24,31328,2.75,73200.5,-9.41,-10.23,-10.23,0,*57
1512515221.49,31329,2.75,73242.5,-9.41,-10.27,-10.27,0,*56
1512515222.74,31330,2.75,73250.8,-9.41,-10.27,-10.27,0,*5E
1512515223.98,31331,2.75,73254.3,-9.41,-10.23,-10.23,0,*5F
1512515225.23,31332,2.75,73282.0,-9.41,-10.27,-10.23,0,*58
1512515226.44,31333,2.75,73238.8,-9.43,-10.23,-10.23,0,*5F
1512515227.69,31334,2.75,73226.8,-9.41,-10.23,-10.15,0,*5F
1512515228.91,31335,2.75,73236.8,-9.43,-10.27,-10.23,0,*5D
1512515230.13,31336,2.75,73248.3,-9.43,-10.27,-10.23,0,*5E
1512515231.37,31337,2.81,73248.8,-9.41,-10.27,-10.23,0,*5D
1512515232.59,31338,2.75,73302.8,-9.43,-10.23,-10.27,0,*50
1512515233.84,31339,2.75,73264.0,-9.41,-10.27,-10.23,0,*53
1512515235.09,31340,2.75,73220.3,-9.41,-10.27,-10.27,0,*59
1512515236.34,31341,2.75,73214.3,-9.41,-10.27,-10.27,0,*58
1512515237.59,31342,2.75,73258.5,-9.41,-10.27,-10.27,0,*5B
1512515238.81,31343,2.75,73272.0,-9.43,-10.27,-10.27,0,*58
1512515240.05,31344,2.75,73252.5,-9.41,-10.27,-10.23,0,*59
1512515241.28,31345,2.75,73258.5,-9.43,-10.27,-10.27,0,*5E
1512515242.5,31346,2.75,73248.5,-9.43,-10.27,-10.27,0,*5D
1512515243.72,31347,2.75,73258.3,-9.43,-10.23,-10.23,0,*5C
1512515244.94,31348,2.75,73262.0,-9.43,-10.27,-10.27,0,*53
1512515246.16,31349,2.75,73254.5,-9.43,-10.27,-10.27,0,*52
1512515247.38,31350,2.75,73274.3,-9.43,-10.27,-10.23,0,*5E
1512515248.6,31351,2.75,73278.5,-9.43,-10.27,-10.27,0,*5B
1512515249.83,31352,2.75,73284.5,-9.43,-10.27,-10.27,0,*58
1512515251.08,31353,2.75,73286.3,-9.41,-10.27,-10.27,0,*5B
1512515252.33,31354,2.75,73288.0,-9.41,-10.27,-10.27,0,*5C
1512515253.55,31355,2.75,73300.0,-9.43,-10.31,-10.27,0,*58
1512515254.77,31356,2.75,73272.0,-9.43,-10.31,-10.27,0,*5B
1512515256.02,31357,2.75,73254.0,-9.41,-10.27,-10.27,0,*5F
1512515257.24,31358,2.75,73198.3,-9.43,-10.27,-10.31,0,*55
1512515258.49,31359,2.75,73176.8,-9.43,-10.31,-10.41,0,*54
1512515259.77,31360,2.75,73152.5,-9.41,-10.41,-10.31,0,*5C
1512515260.99,31361,2.75,73166.3,-9.43,-10.31,-10.31,0,*58
1512515262.21,31362,2.75,73170.0,-9.43,-10.31,-10.31,0,*5B
1512515263.43,31363,2.75,73216.8,-9.43,-10.27,-10.31,0,*5D
1512515264.65,31364,2.75,73218.0,-9.43,-10.23,-10.27,0,*59
1512515265.87,31365,2.75,73204.0,-9.43,-10.27,-10.23,0,*58
1512515267.09,31366,2.75,73198.8,-9.43,-10.27,-10.27,0,*5F
1512515268.31,31367,2.75,73196.5,-9.43,-10.27,-10.23,0,*5A
1512515269.53,31368,2.75,73206.3,-9.43,-10.23,-10.27,0,*55
1512515270.76,31369,2.75,73210.8,-9.43,-10.27,-10.27,0,*50
1512515272.0,31370,2.75,73218.0,-9.41,-10.23,-10.27,0,*5E
1512515273.22,31371,2.75,73228.0,-9.43,-10.23,-10.23,0,*59
1512515274.47,31372,2.75,73234.8,-9.41,-10.27,-10.27,0,*58
1512515275.72,31373,2.75,73232.8,-9.41,-10.23,-10.23,0,*59
1512515276.94,31374,2.75,73222.5,-9.43,-10.15,-10.15,0,*5C
1512515278.19,31375,2.75,73202.8,-9.41,-10.15,-10.27,0,*5E
1512515279.44,31376,2.75,73190.5,-9.41,-10.23,-10.23,0,*5C
1512515280.68,31377,2.75,73196.5,-9.41,-10.15,-10.09,0,*50
1512515281.91,31378,2.75,73256.3,-9.43,-10.15,-10.15,0,*50
1512515283.16,31379,2.75,73264.3,-9.41,-10.15,-10.15,0,*53
1512515284.41,31380,2.75,73258.8,-9.41,-10.23,-10.23,0,*55
1512515285.63,31381,2.75,73232.3,-9.43,-10.23,-10.15,0,*53
1512515286.88,31382,2.75,73216.0,-9.41,-10.23,-10.15,0,*52
1512515288.11,31383,2.75,73274.5,-9.43,-10.15,-10.15,0,*54
1512515289.36,31384,2.75,73254.8,-9.41,-10.15,-10.15,0,*51
1512515290.6,31385,2.75,73214.0,-9.41,-10.09,-10.15,0,*5D
1512515291.85,31386,2.75,73224.0,-9.41,-10.27,-10.27,0,*53
1512515293.07,31387,2.75,73260.5,-9.43,-10.23,-10.23,0,*50
1512515294.32,31388,2.75,73274.5,-9.41,-10.27,-10.27,0,*5D
1512515295.56,31389,2.75,73262.8,-9.41,-10.23,-10.23,0,*5C
1512515296.78,31390,2.75,73264.0,-9.43,-10.23,-10.23,0,*56
1512515298.03,31391,2.75,73256.5,-9.41,-10.27,-10.27,0,*55
1512515299.27,31392,2.75,73244.5,-9.41,-10.27,-10.23,0,*52
1512515300.52,31393,2.75,73262.3,-9.41,-10.27,-10.27,0,*57
1512515301.77,31394,2.75,73272.3,-9.41,-10.23,-10.27,0,*54